FW5795 Weather Reports


time (UTC)temp
F
wind
direction
speed
knots
gust
knots
rain 1hr
in
rain 24hr
in
rain mn
in
humidity
%
barometer
mb
20220812004345 73 188 0.0 0.9 0.00 0.00 0.00 69 1012.5
20220812003316 74 187 0.9 3.5 0.00 0.00 0.00 68 1012.5
20220812003142 74 156 0.0 3.5 0.00 0.00 0.00 67 1012.4
20220812003134 74 123 0.0 3.5 0.00 0.00 0.00 67 1012.4
20220812002052 74 230 0.9 3.5 0.00 0.00 0.00 66 1012.4
20220812001309 74 186 0.9 2.6 0.00 0.00 0.00 65 1012.2
20220812000806 75 160 0.9 3.5 0.00 0.00 0.00 65 1012.1
20220812000549 75 104 0.9 3.5 0.00 0.00 0.00 64 1012.1
20220811235805 75 70 0.9 5.2 0.00 0.00 0.00 63 1012.1
20220811235305 76 209 0.9 3.5 0.00 0.00 0.00 62 1012.1
20220811234903 76 108 0.9 4.3 0.00 0.00 0.00 61 1012.0
20220811234846 76 128 0.9 4.3 0.00 0.00 0.00 62 1012.0
20220811234222 77 210 0.9 3.5 0.00 0.00 0.00 59 1011.8
20220811233913 76 176 1.7 3.5 0.00 0.00 0.00 61 1011.9
20220811233638 77 207 1.7 3.5 0.00 0.00 0.00 60 1012.0
20220811232534 78 322 0.9 4.3 0.00 0.00 0.00 58 1011.8
20220811231941 78 205 0.9 3.5 0.00 0.00 0.00 56 1011.6
20220811231915 78 202 1.7 4.3 0.00 0.00 0.00 57 1011.7
20220811231402 78 214 1.7 4.3 0.00 0.00 0.00 56 1011.5
20220811231343 78 198 1.7 4.3 0.00 0.00 0.00 56 1011.6
20220811225754 78 153 1.7 4.3 0.00 0.00 0.00 55 1011.4
20220811225248 78 138 1.7 4.3 0.00 0.00 0.00 55 1011.4
20220811224745 79 176 1.7 4.3 0.00 0.00 0.00 54 1011.4
20220811224025 79 130 0.9 4.3 0.00 0.00 0.00 50 1011.3
20220811223625 80 209 1.7 4.3 0.00 0.00 0.00 47 1011.2
20220811223327 80 149 1.7 3.5 0.00 0.00 0.00 48 1011.2
20220811222243 80 190 0.9 4.3 0.00 0.00 0.00 47 1011.3
20220811222050 80 213 1.7 4.3 0.00 0.00 0.00 48 1011.3
20220811221803 80 200 0.9 4.3 0.00 0.00 0.00 47 1011.3
20220811221026 79 209 1.7 3.5 0.00 0.00 0.00 49 1011.3
20220811220549 79 218 1.7 3.5 0.00 0.00 0.00 48 1011.3
20220811215742 79 191 1.7 3.5 0.00 0.00 0.00 48 1011.2
20220811215527 79 228 1.7 3.5 0.00 0.00 0.00 47 1011.3
20220811214744 80 242 0.9 3.5 0.00 0.00 0.00 46 1011.3
20220811214524 80 202 1.7 5.2 0.00 0.00 0.00 48 1011.3
20220811214226 80 207 1.7 4.3 0.00 0.00 0.00 47 1011.4
20220811213929 80 194 1.7 5.2 0.00 0.00 0.00 46 1011.3
20220811213855 80 180 2.6 5.2 0.00 0.00 0.00 47 1011.3
20220811212453 80 214 2.6 4.3 0.00 0.00 0.00 47 1011.5
20220811212427 81 119 1.7 5.2 0.00 0.00 0.00 45 1011.3
20220811212153 80 105 2.6 5.2 0.00 0.00 0.00 47 1011.4
20220811211843 81 186 1.7 6.1 0.00 0.00 0.00 45 1011.3
20220811211316 81 120 2.6 6.1 0.00 0.00 0.00 46 1011.4
20220811210743 80 80 3.5 8.7 0.00 0.00 0.00 47 1011.5
20220811210732 80 167 2.6 8.7 0.00 0.00 0.00 45 1011.4
20220811205833 81 238 2.6 5.2 0.00 0.00 0.00 46 1011.4
20220811204608 80 207 2.6 6.1 0.00 0.00 0.00 47 1011.6
20220811203525 80 176 1.7 5.2 0.00 0.00 0.00 47 1011.6
20220811202820 80 137 1.7 4.3 0.00 0.00 0.00 47 1011.8
20220811202808 80 144 0.9 4.3 0.00 0.00 0.00 46 1011.7
20220811202030 80 231 2.6 7.8 0.00 0.00 0.00 47 1011.8
20220811201632 79 186 2.6 6.1 0.00 0.00 0.00 48 1011.8
20220811201625 79 226 2.6 7.8 0.00 0.00 0.00 48 1011.8
20220811200805 80 226 1.7 6.1 0.00 0.00 0.00 47 1011.8
20220811200015 79 202 1.7 6.1 0.00 0.00 0.00 50 1011.7
20220811195516 79 185 1.7 3.5 0.00 0.00 0.00 49 1011.8
20220811194718 79 182 1.7 3.5 0.00 0.00 0.00 48 1011.9
20220811194541 80 188 1.7 3.5 0.00 0.00 0.00 49 1011.9
20220811194242 80 213 0.9 3.5 0.00 0.00 0.00 47 1011.9
20220811193213 80 141 1.7 3.5 0.00 0.00 0.00 47 1011.9
20220811193106 80 208 2.6 7.0 0.00 0.00 0.00 48 1012.2
20220811193059 80 189 2.6 5.2 0.00 0.00 0.00 47 1012.2
20220811193053 80 191 2.6 7.0 0.00 0.00 0.00 48 1012.0
20220811191215 80 170 2.6 5.2 0.00 0.00 0.00 48 1012.1
20220811190710 81 223 1.7 5.2 0.00 0.00 0.00 47 1012.1
20220811190454 81 239 1.7 4.3 0.00 0.00 0.00 48 1012.2
20220811190001 80 222 2.6 4.3 0.00 0.00 0.00 48 1012.2
20220811185209 80 248 1.7 4.3 0.00 0.00 0.00 49 1012.3
20220811184711 79 214 2.6 7.8 0.00 0.00 0.00 49 1012.3
20220811184207 79 194 2.6 7.8 0.00 0.00 0.00 49 1012.3
20220811183752 79 193 2.6 7.0 0.00 0.00 0.00 50 1012.4
20220811183741 79 230 2.6 5.2 0.00 0.00 0.00 49 1012.4
20220811182946 80 216 2.6 7.0 0.00 0.00 0.00 49 1012.5
20220811182459 80 201 1.7 7.0 0.00 0.00 0.00 50 1012.5
20220811181705 80 153 1.7 5.2 0.00 0.00 0.00 49 1012.5
20220811181157 81 181 1.7 6.1 0.00 0.00 0.00 47 1012.6
20220811180944 80 136 1.7 6.1 0.00 0.00 0.00 49 1012.5
20220811180156 81 207 0.9 6.1 0.00 0.00 0.00 51 1012.6
20220811175649 80 199 0.9 3.5 0.00 0.00 0.00 52 1012.6
20220811175149 79 220 0.9 3.5 0.00 0.00 0.00 54 1012.6
20220811174649 78 235 1.7 3.5 0.00 0.00 0.00 54 1012.8
20220811174410 77 222 0.9 3.5 0.00 0.00 0.00 54 1013.1
20220811174357 78 207 1.7 4.3 0.00 0.00 0.00 53 1013.3
20220811174349 78 118 1.7 5.2 0.00 0.00 0.00 53 1013.3
20220811174318 78 201 1.7 3.5 0.00 0.00 0.00 55 1012.9
20220811172601 79 199 0.9 3.5 0.00 0.00 0.00 53 1013.3
20220811172554 79 215 1.7 6.1 0.00 0.00 0.00 54 1013.3
20220811172244 78 201 2.6 6.1 0.00 0.00 0.00 54 1013.3
20220811170645 78 33 1.7 5.2 0.00 0.00 0.00 56 1013.3
20220811170253 78 202 1.7 5.2 0.00 0.00 0.00 56 1013.3
20220811170230 77 144 2.6 5.2 0.00 0.00 0.00 56 1013.4
20220811165435 77 175 1.7 5.2 0.00 0.00 0.00 57 1013.4
20220811164636 77 224 1.7 4.3 0.00 0.00 0.00 57 1013.3
20220811164134 77 209 1.7 4.3 0.00 0.00 0.00 58 1013.6
20220811163921 77 221 0.9 4.3 0.00 0.00 0.00 57 1013.5
20220811163139 77 193 0.9 2.6 0.00 0.00 0.00 57 1013.4
20220811162642 77 158 1.7 4.3 0.00 0.00 0.00 57 1013.4
20220811162416 76 198 1.7 7.0 0.00 0.00 0.00 59 1013.5
20220811161622 77 36 1.7 7.0 0.00 0.00 0.00 58 1013.7
20220811161118 78 170 0.9 6.1 0.00 0.00 0.00 59 1013.8
20220811160612 77 164 0.9 3.5 0.00 0.00 0.00 60 1013.7
20220811160114 76 187 1.7 3.5 0.00 0.00 0.00 61 1013.8
20220811155611 76 199 1.7 3.5 0.00 0.00 0.00 61 1013.8
20220811155207 76 185 1.7 3.5 0.00 0.00 0.00 61 1013.8
20220811155151 76 223 0.9 2.6 0.00 0.00 0.00 61 1013.8
20220811154242 76 215 1.7 3.5 0.00 0.00 0.00 59 1013.8
20220811154216 76 140 0.9 3.5 0.00 0.00 0.00 60 1013.8
20220811153937 76 217 0.9 3.5 0.00 0.00 0.00 58 1013.8
20220811152612 76 208 1.7 4.3 0.00 0.00 0.00 58 1013.9
20220811152111 76 183 1.7 4.3 0.00 0.00 0.00 59 1013.8
20220811152017 76 127 0.9 2.6 0.00 0.00 0.00 61 1013.8
20220811152012 75 128 0.9 2.6 0.00 0.00 0.00 61 1013.9
20220811152005 76 205 0.9 3.5 0.00 0.00 0.00 60 1013.8
20220811150254 75 214 0.0 1.7 0.00 0.00 0.00 63 1013.9
20220811150211 76 139 0.9 2.6 0.00 0.00 0.00 62 1013.7
20220811145639 76 201 0.0 1.7 0.00 0.00 0.00 63 1013.9
20220811144928 74 313 0.9 3.5 0.00 0.00 0.00 64 1014.1
20220811144922 74 213 0.0 1.7 0.00 0.00 0.00 63 1014.0
20220811143601 74 212 0.9 3.5 0.00 0.00 0.00 64 1014.2
20220811143411 74 211 0.0 3.5 0.00 0.00 0.00 63 1014.2
20220811142602 74 207 0.9 1.7 0.00 0.00 0.00 64 1014.2
20220811142058 74 207 0.9 2.6 0.00 0.00 0.00 64 1014.3
20220811141834 73 207 0.0 2.6 0.00 0.00 0.00 65 1014.2
20220811141056 73 193 0.0 2.6 0.00 0.00 0.00 66 1014.2
20220811140838 73 186 0.0 2.6 0.00 0.00 0.00 67 1014.1
20220811140056 73 169 0.0 1.7 0.00 0.00 0.00 67 1014.2
20220811135848 73 182 0.0 1.7 0.00 0.00 0.00 68 1014.2
20220811135053 73 182 0.0 1.7 0.00 0.00 0.00 68 1014.1
20220811134925 72 195 0.0 1.7 0.00 0.00 0.00 69 1014.2
20220811134920 72 182 0.0 1.7 0.00 0.00 0.00 69 1014.2
20220811133835 72 188 0.0 1.7 0.00 0.00 0.00 69 1014.2
20220811133416 72 192 0.0 1.7 0.00 0.00 0.00 69 1014.2
20220811132835 72 192 0.0 1.7 0.00 0.00 0.00 69 1014.2
20220811132345 72 192 0.9 2.6 0.00 0.00 0.00 69 1014.3
20220811131552 72 192 0.9 2.6 0.00 0.00 0.00 69 1014.4
20220811131051 73 203 0.9 1.7 0.00 0.00 0.00 68 1014.4
20220811130548 73 230 0.9 2.6 0.00 0.00 0.00 69 1014.3
20220811130241 70 200 0.9 3.5 0.00 0.00 0.00 71 1014.4
20220811130153 72 261 0.9 3.5 0.00 0.00 0.00 69 1014.3
20220811125903 71 200 0.0 2.6 0.00 0.00 0.00 71 1014.3
20220811125857 72 145 0.0 3.5 0.00 0.00 0.00 70 1014.2
20220811125853 71 201 0.0 1.7 0.00 0.00 0.00 70 1014.2
20220811124510 71 207 1.7 3.5 0.00 0.00 0.00 71 1014.5
20220811124505 70 201 0.9 2.6 0.00 0.00 0.00 71 1014.4
20220811122546 71 200 0.9 3.5 0.00 0.00 0.00 71 1014.4
20220811122041 71 203 0.0 2.6 0.00 0.00 0.00 72 1014.3
20220811121958 69 192 0.9 1.7 0.00 0.00 0.00 74 1014.3
20220811121653 70 192 0.0 1.7 0.00 0.00 0.00 73 1014.3
20220811120600 69 195 0.9 2.6 0.00 0.00 0.00 74 1014.3
20220811120417 69 189 0.9 2.6 0.00 0.00 0.00 74 1014.3
20220811115542 69 197 0.9 2.6 0.00 0.00 0.00 75 1014.4
20220811115119 69 202 1.7 3.5 0.00 0.00 0.00 76 1014.5
20220811115104 69 198 0.9 3.5 0.00 0.00 0.00 76 1014.5
20220811114041 68 237 0.9 3.5 0.00 0.00 0.00 76 1014.6
20220811113824 68 169 0.0 2.6 0.00 0.00 0.00 76 1014.5
20220811113037 68 169 0.0 0.0 0.00 0.00 0.00 77 1014.4
20220811112828 68 169 0.0 0.0 0.00 0.00 0.00 77 1014.5
20220811112035 68 169 0.0 0.0 0.00 0.00 0.00 77 1014.6
20220811111535 68 169 0.0 0.0 0.00 0.00 0.00 77 1014.7
20220811111035 67 169 0.0 0.0 0.00 0.00 0.00 77 1014.7
20220811110548 67 169 0.0 0.0 0.00 0.00 0.00 77 1014.7
20220811110358 67 169 0.0 0.0 0.00 0.00 0.00 77 1014.6
20220811105533 67 169 0.0 0.0 0.00 0.00 0.00 77 1014.7
20220811105329 67 169 0.0 0.0 0.00 0.00 0.00 78 1014.6
20220811104656 66 169 0.0 0.0 0.00 0.00 0.00 77 1014.6
20220811104640 67 169 0.0 0.0 0.00 0.00 0.00 78 1014.6
20220811104102 67 169 0.0 0.0 0.00 0.00 0.00 78 1014.6
20220811103030 66 169 0.0 0.0 0.00 0.00 0.00 77 1014.6
20220811102910 66 169 0.0 0.0 0.00 0.00 0.00 77 1014.5
20220811102621 66 169 0.0 0.0 0.00 0.00 0.00 76 1014.5
20220811102606 66 169 0.0 0.0 0.00 0.00 0.00 77 1014.5
20220811101317 66 169 0.0 0.0 0.00 0.00 0.00 76 1014.4
20220811100615 66 169 0.0 0.0 0.00 0.00 0.00 76 1014.5
20220811100559 66 169 0.0 0.0 0.00 0.00 0.00 76 1014.5
20220811095515 66 169 0.0 0.0 0.00 0.00 0.00 75 1014.5
20220811095017 67 169 0.0 0.0 0.00 0.00 0.00 75 1014.4
20220811094802 67 169 0.0 0.0 0.00 0.00 0.00 75 1014.4
20220811094301 67 169 0.0 0.0 0.00 0.00 0.00 75 1014.5
20220811093800 67 169 0.0 0.0 0.00 0.00 0.00 75 1014.4
20220811093242 67 169 0.0 0.0 0.00 0.00 0.00 74 1014.7
20220811093153 67 169 0.0 0.0 0.00 0.00 0.00 75 1014.5
20220811092921 67 169 0.0 0.0 0.00 0.00 0.00 73 1014.8
20220811092915 67 169 0.0 0.0 0.00 0.00 0.00 73 1014.9
20220811092614 67 169 0.0 0.0 0.00 0.00 0.00 75 1014.6
20220811092341 67 169 0.0 0.0 0.00 0.00 0.00 75 1014.7
20220811091513 67 169 0.0 0.0 0.00 0.00 0.00 74 1014.8
20220811090930 67 169 0.0 0.0 0.00 0.00 0.00 73 1014.8
20220811085523 67 169 0.0 0.0 0.00 0.00 0.00 73 1014.7
20220811084452 67 169 0.0 0.0 0.00 0.00 0.00 73 1014.9
20220811083951 67 169 0.0 0.0 0.00 0.00 0.00 73 1015.0
20220811083448 67 169 0.0 0.0 0.00 0.00 0.00 73 1014.9
20220811083005 67 169 0.0 0.0 0.00 0.00 0.00 73 1015.0
20220811082956 67 169 0.0 0.0 0.00 0.00 0.00 73 1015.0
20220811081943 67 169 0.0 0.0 0.00 0.00 0.00 72 1015.0
20220811081442 67 169 0.0 0.9 0.00 0.00 0.00 72 1015.1
20220811080938 68 169 0.0 0.9 0.00 0.00 0.00 72 1015.1
20220811080718 67 169 0.0 0.0 0.00 0.00 0.00 72 1015.1
20220811075943 67 169 0.0 0.0 0.00 0.00 0.00 73 1015.3
20220811075505 67 169 0.0 0.9 0.00 0.00 0.00 73 1015.4
20220811075455 67 169 0.0 0.0 0.00 0.00 0.00 73 1015.3
20220811074435 67 169 0.0 0.9 0.00 0.00 0.00 73 1015.5
20220811073934 67 169 0.0 0.9 0.00 0.00 0.00 73 1015.4
20220811073753 67 169 0.0 0.9 0.00 0.00 0.00 73 1015.5
20220811073507 67 169 0.0 0.9 0.00 0.00 0.00 73 1015.5
20220811072431 67 169 0.0 0.9 0.00 0.00 0.00 73 1015.7
20220811071926 67 169 0.0 0.0 0.00 0.00 0.00 73 1015.9
20220811071420 67 169 0.0 0.0 0.00 0.00 0.00 74 1015.9
20220811071204 67 169 0.0 0.0 0.00 0.00 0.00 74 1015.9
20220811070649 67 169 0.0 0.0 0.00 0.00 0.00 73 1015.9
20220811070039 67 169 0.0 0.0 0.00 0.00 0.00 73 1016.1
20220811070014 67 169 0.0 0.0 0.00 0.00 0.00 74 1016.0
20220811065739 67 169 0.0 0.0 0.00 0.00 0.00 73 1016.0
20220811065454 67 169 0.0 0.0 0.00 0.00 0.00 73 1016.0
20220811065442 67 169 0.0 0.0 0.00 0.00 0.00 73 1016.0
20220811065430 67 169 0.0 0.0 0.00 0.00 0.00 73 1016.1
20220811064314 67 169 0.0 0.0 0.00 0.00 0.00 73 1016.1
20220811062645 67 169 0.0 0.0 0.00 0.00 0.00 73 1016.1
20220811062228 67 169 0.0 0.0 0.00 0.00 0.00 73 1016.2
20220811062224 67 169 0.0 0.0 0.00 0.00 0.00 73 1016.3
20220811062218 67 169 0.0 0.0 0.00 0.00 0.00 73 1016.1
20220811061616 67 169 0.0 0.0 0.00 0.00 0.00 73 1016.2
20220811061355 67 169 0.0 0.0 0.00 0.00 0.00 73 1016.3
20220811055935 67 169 0.0 0.0 0.00 0.00 0.00 73 1016.1
20220811055049 67 169 0.0 0.9 0.00 0.00 0.00 73 1016.7
20220811055029 67 169 0.0 0.0 0.00 0.00 0.00 73 1016.5
20220811054501 67 169 0.0 0.9 0.00 0.00 0.00 73 1016.6
20220811054225 67 169 0.0 0.9 0.00 0.00 0.00 73 1016.7
20220811052902 67 169 0.0 0.9 0.00 0.00 0.00 73 1016.8
20220811052731 67 169 0.0 0.0 0.00 0.00 0.00 73 1016.9
20220811052727 67 169 0.0 0.9 0.00 0.00 0.00 73 1017.0
20220811051640 67 169 0.0 0.9 0.00 0.00 0.00 73 1016.9
20220811050902 67 169 0.0 0.9 0.00 0.00 0.00 73 1016.9
20220811050404 67 169 0.0 0.9 0.00 0.00 0.00 73 1017.0
20220811045904 67 169 0.0 0.9 0.00 0.00 0.00 73 1017.0
20220811045636 67 172 0.0 0.9 0.00 0.00 0.00 72 1017.2
20220811045607 67 172 0.0 0.9 0.00 0.00 0.00 72 1017.0
20220811045340 67 170 0.0 0.9 0.00 0.00 0.00 73 1017.1
20220811045336 67 170 0.0 1.7 0.00 0.00 0.00 72 1017.1
20220811045013 67 172 0.0 0.9 0.00 0.00 0.00 72 1017.1
20220811044458 67 172 0.0 0.0 0.00 0.00 0.00 72 1017.1
20220811044439 67 172 0.0 0.9 0.00 0.00 0.00 72 1017.1
20220811043336 67 172 0.0 0.9 0.00 0.00 0.00 72 1017.1
20220811042457 67 172 0.0 0.9 0.00 0.00 0.00 72 1017.1
20220811041146 67 140 0.0 1.7 0.00 0.00 0.00 72 1017.2
20220811040632 67 141 0.0 0.9 0.00 0.00 0.00 72 1017.3
20220811035852 67 141 0.0 0.0 0.00 0.00 0.00 72 1017.3
20220811035350 67 141 0.0 0.9 0.00 0.00 0.00 72 1017.3
20220811035146 67 141 0.0 1.7 0.00 0.00 0.00 72 1017.2
20220811034349 67 188 0.9 3.5 0.00 0.00 0.00 72 1017.2
20220811033845 67 188 0.9 3.5 0.00 0.00 0.00 72 1017.3
20220811033349 67 199 0.9 2.6 0.00 0.00 0.00 71 1017.2
20220811033215 67 135 0.0 1.7 0.00 0.00 0.00 71 1017.1
20220811032905 67 47 0.0 1.7 0.00 0.00 0.00 71 1017.1
20220811031840 67 136 0.0 1.7 0.00 0.00 0.00 71 1017.2
20220811031338 67 135 0.0 0.9 0.00 0.00 0.00 71 1017.3
20220811031209 67 126 0.0 1.7 0.00 0.00 0.00 70 1017.3
20220811030904 67 135 0.0 1.7 0.00 0.00 0.00 71 1017.3
20220811030139 67 139 0.0 1.7 0.00 0.00 0.00 70 1017.5
20220811025331 67 64 0.0 2.6 0.00 0.00 0.00 70 1017.4
20220811025109 67 172 0.0 2.6 0.00 0.00 0.00 69 1017.4
20220811024334 67 120 0.0 0.9 0.00 0.00 0.00 69 1017.4
20220811023830 67 120 0.0 1.7 0.00 0.00 0.00 69 1017.5
20220811023702 67 112 0.0 2.6 0.00 0.00 0.00 68 1017.5
20220811023658 67 112 0.0 2.6 0.00 0.00 0.00 69 1017.6
20220811022357 68 132 0.0 1.7 0.00 0.00 0.00 67 1017.5
20220811022338 68 145 0.0 1.7 0.00 0.00 0.00 68 1017.5
20220811021301 68 134 0.0 1.7 0.00 0.00 0.00 67 1017.5
20220811020820 68 127 0.0 0.9 0.00 0.00 0.00 66 1017.8
20220811020813 68 128 0.0 0.9 0.00 0.00 0.00 67 1017.6
20220811015805 69 127 0.0 0.9 0.00 0.00 0.00 65 1017.9
20220811015542 69 72 0.0 0.9 0.00 0.00 0.00 65 1017.8
20220811014803 69 74 0.0 1.7 0.00 0.00 0.00 65 1017.9
20220811014303 69 74 0.0 1.7 0.00 0.00 0.00 65 1017.8
20220811014050 69 180 0.0 1.7 0.00 0.00 0.00 65 1017.8
20220811013551 69 127 0.0 1.7 0.00 0.00 0.00 65 1017.9
20220811012802 69 336 0.9 3.5 0.00 0.00 0.00 65 1017.9
20220811012305 69 20 0.9 3.5 0.00 0.00 0.00 65 1017.9
20220811011805 69 108 0.9 4.3 0.00 0.00 0.00 65 1017.9
20220811011301 69 232 0.9 4.3 0.00 0.00 0.00 65 1017.9
20220811010842 69 210 0.0 2.6 0.00 0.00 0.00 64 1017.8
20220811010830 69 205 0.0 2.6 0.00 0.00 0.00 65 1017.8
20220811005804 69 161 0.0 2.6 0.00 0.00 0.00 65 1017.8
20220811005342 69 94 0.0 2.6 0.00 0.00 0.00 64 1017.6
20220811005331 69 197 0.9 2.6 0.00 0.00 0.00 64 1017.8